Tracking 30692 objects as of 16-Jun-2025
HD Live streaming from Space Station
objects crossing your sky now

HEAD-3C

Track HEAD-3C now!
10-day predictions


NORAD ID: 57628
Int'l Code: 2023-121C
Perigee: 691.3 km
Apogee: 700.8 km
Inclination: 45.0 °
Period: 98.5 minutes
Semi major axis: 7067 km
RCS: Unknown
Launch date: August 14, 2023
Source: People's Republic of China (PRC)
Launch site: Xichang Space Center, China (XSC)
Your satellite tracking list
Your tracking list is empty




NASA's NSSDC Master Catalog

Two Line Element Set (TLE):
1 57628U 23121C   25167.62692985  .00000987  00000-0  22986-3 0  9999
2 57628  45.0006 300.2677 0006683 174.8227 185.2700 14.61324784 98240
Source of the keplerian elements: AFSPC